Theta_e
344 343 342 341 342 342 341 341 343 343 346 348 348 346 344 343 339 334 331 327 324 322 321 321 320 319 319 320 321 323 326 323 317 318 316 315 326 323 324 324 323 321 323
344 341 341 341 341 341 342 342 342 344 347 347 346 344 343 340 336 332 329 327 323 322 321 322 321 324 319 319 321 320 321 320 319 311 310 313 314 317 321 321 323 327 322
340 339 339 339 340 340 340 341 344 345 345 345 342 341 339 335 331 329 328 325 323 320 319 319 319 318 316 317 319 319 317 316 312 311 311 312 313 315 316 315 320 319 324
340 338 338 338 340 340 339 344 343 345 344 343 341 339 335 331 329 328 325 322 319 316 317 318 318 317 316 315 317 317 314 313 312 311 309 309 310 312 312 310 311 316 313
340 339 338 339 339 340 342 345 345 345 344 342 339 336 332 331 329 323 322 318 313 313 313 313 313 318 323 319 316 314 314 312 310 309 307 304 305 306 306 308 308 310 311
340 340 338 336 336 339 341 344 345 344 340 338 337 334 331 332 332 330 321 313 312 312 315 315 318 323 326 328 326 324 317 312 309 306 301 299 301 303 305 305 306 305 305
339 340 338 336 334 337 340 342 341 339 337 336 335 333 330 329 331 330 324 311 309 312 312 312 315 319 317 317 325 326 325 323 316 303 299 300 302 305 305 304 304 301 300
336 338 336 336 334 340 342 343 339 337 335 333 331 329 326 327 330 328 327 311 310 312 315 318 315 311 309 308 306 305 306 306 305 306 304 303 305 307 307 306 304 304 303
334 333 334 336 339 343 343 342 338 335 333 330 327 324 323 321 327 326 319 312 313 314 317 315 315 314 319 317 306 305 305 307 317 317 315 316 316 318 311 306 304 304 302
335 335 336 338 342 344 345 340 340 336 334 329 325 323 323 319 323 324 321 319 316 315 313 315 320 313 320 319 309 307 305 306 307 307 307 309 311 310 318 306 305 302 301
337 337 339 343 343 345 345 342 338 334 331 326 324 321 320 316 318 321 321 318 317 312 311 309 308 317 317 316 315 309 308 309 314 308 306 308 308 307 307 308 306 304 302
341 340 341 344 344 346 343 341 337 334 331 325 322 318 318 316 317 319 319 319 318 313 310 307 305 314 312 314 313 314 314 311 304 304 306 307 308 310 310 308 309 307 306
346 345 345 346 345 345 343 339 336 333 332 327 324 321 317 316 313 316 318 319 318 313 311 311 310 310 310 311 313 314 314 304 307 306 305 304 305 306 304 306 307 305 305
346 347 347 346 345 345 344 341 339 334 331 329 325 322 319 315 316 313 313 315 319 319 319 314 312 310 309 307 307 310 303 304 308 305 304 304 304 305 305 304 302 302 301
347 348 347 347 343 344 343 341 340 339 333 331 329 327 320 319 318 316 312 311 310 312 311 308 305 303 303 302 302 304 304 304 307 306 304 305 304 303 305 302 301 300 300
346 347 346 346 343 345 344 341 315 322 317 314 314 322 325 317 310 308 306 304 305 306 308 306 305 306 304 303 303 304 306 310 305 306 305 304 304 303 304 300 300 302 299
348 348 347 343 343 345 344 342 338 322 310 310 308 310 311 313 305 304 303 302 302 305 308 306 309 308 307 305 306 305 306 308 308 307 306 305 305 304 304 301 300 300 301
351 333 349 347 347 346 345 343 342 339 331 329 309 311 306 304 303 302 302 301 303 303 311 308 310 308 307 306 307 307 308 307 307 308 307 307 306 304 303 301 301 303 303
351 349 349 348 348 343 345 344 342 339 335 334 328 307 307 302 301 300 299 313 311 309 309 311 311 310 309 308 309 309 310 310 310 309 310 308 307 307 305 305 303 303 303
353 342 344 349 348 346 345 343 341 339 336 334 332 329 317 307 310 307 304 309 312 311 310 311 312 313 313 312 312 312 312 312 312 311 311 310 309 308 307 304 304 303 304
358 350 342 348 348 347 346 344 342 340 338 336 335 331 313 322 324 321 317 310 312 313 311 311 312 313 314 315 315 314 315 314 313 313 311 309 309 308 308 307 306 304 303
345 347 347 348 347 345 345 344 343 341 340 337 335 331 306 322 327 326 325 322 316 317 316 314 312 312 313 313 314 314 315 315 315 313 312 311 310 310 308 307 306 304 305
343 338 337 339 340 334 343 345 343 342 341 340 337 332 315 320 325 327 326 325 323 319 319 317 315 314 314 314 314 315 314 315 316 316 313 312 311 310 309 308 307 304 305
337 337 334 334 333 334 337 345 344 332 342 342 340 336 329 322 323 325 326 324 322 320 320 319 317 317 317 316 315 316 317 317 318 317 316 314 312 309 311 309 308 307 306
340 338 333 332 331 330 332 338 345 345 345 343 342 338 335 325 324 324 325 325 321 320 319 319 319 318 316 317 316 316 311 302 314 310 316 316 314 312 311 310 309 308 308
326 335 342 340 338 338 339 340 344 347 347 346 344 343 338 332 326 326 325 325 323 321 319 319 318 317 317 317 317 309 297 295 302 298 315 315 314 313 311 310 309 308 309
Wind_Speed
9 8 7 7 7 6 6 6 6 4 4 5 4 5 4 4 5 6 5 6 6 5 3 5 6 3 3 2 2 1 2 3 5 1 1 2 1 2 3 2 2 3 4
9 8 7 6 6 6 6 6 5 5 4 6 6 5 5 5 5 7 6 5 6 5 3 7 5 2 5 4 2 3 4 3 5 6 1 4 3 2 2 0 1 3 2
7 7 7 7 6 6 6 6 6 5 5 6 7 6 6 6 6 5 6 6 6 4 5 5 4 3 4 3 2 5 4 4 3 5 3 2 2 2 2 2 2 2 1
8 7 6 6 7 6 6 6 7 6 8 7 6 7 6 6 6 6 6 6 5 4 5 4 4 4 4 4 4 5 4 5 4 4 3 2 3 3 3 3 3 4 4
9 9 8 7 6 6 6 6 5 5 4 5 9 6 6 7 6 7 6 6 6 6 5 4 3 4 4 3 4 5 6 4 4 3 3 1 2 3 2 3 2 1 2
11 10 7 6 6 6 6 6 6 5 5 6 6 7 7 4 13 12 9 6 6 7 6 5 4 7 5 7 9 8 6 6 4 3 2 2 1 1 1 1 1 2 2
12 10 10 9 8 8 6 7 8 9 7 6 6 7 7 6 13 13 14 6 6 6 6 5 3 2 6 6 10 11 9 7 4 5 4 3 3 4 3 1 1 2 1
12 13 10 10 9 8 7 7 6 6 6 5 6 6 6 5 14 13 13 7 6 6 6 5 5 4 3 6 6 7 6 6 6 5 5 4 2 3 2 4 3 3 1
12 12 12 13 11 10 10 9 5 5 5 4 5 7 7 6 12 13 11 7 6 6 5 5 5 5 6 8 7 7 4 4 5 6 6 5 5 3 5 3 1 2 1
14 14 14 14 13 13 12 10 6 5 5 5 5 6 8 7 9 13 10 5 6 4 3 4 7 6 7 9 7 7 6 5 5 3 1 1 2 1 4 2 4 3 2
12 11 13 13 14 12 11 8 8 6 7 6 6 6 6 7 7 14 14 7 6 5 4 4 4 8 8 11 9 6 7 5 5 4 1 2 2 2 2 2 3 3 3
13 13 13 12 10 9 12 9 9 9 9 8 7 5 4 5 6 11 13 9 9 7 6 5 5 9 9 9 8 8 9 6 3 2 2 2 3 3 4 5 4 3 3
13 13 13 12 11 10 11 10 8 8 8 8 8 6 4 4 5 7 12 11 12 6 4 7 10 10 9 7 8 9 9 4 4 3 3 3 3 3 1 1 2 2 4
14 13 12 13 13 11 8 8 9 8 8 8 8 7 6 5 6 5 5 6 9 8 7 5 6 6 5 5 3 4 4 5 5 4 3 3 1 1 2 2 2 1 0
12 12 12 11 13 12 10 11 11 11 12 12 11 9 9 9 10 11 10 8 6 6 6 3 2 3 4 3 4 5 4 4 4 3 4 4 3 2 2 2 1 1 3
12 11 11 11 11 10 10 8 1 8 13 11 11 12 9 7 14 17 16 13 13 14 3 4 5 7 8 6 6 5 4 7 5 4 4 3 3 4 3 2 2 3 3
14 13 10 10 10 10 9 10 11 3 5 13 14 15 14 13 15 17 17 17 16 12 5 5 7 8 9 8 7 6 6 7 6 5 5 5 5 4 4 4 4 3 2
15 15 12 12 10 9 11 13 10 10 12 9 10 11 15 13 17 17 18 12 4 6 10 8 9 8 8 8 8 7 6 5 5 7 6 6 6 5 5 4 5 4 4
12 9 10 11 11 11 11 11 9 9 9 9 5 7 11 14 13 13 16 10 11 11 11 10 8 9 9 9 9 8 9 9 8 6 7 7 8 7 7 6 6 9 7
10 12 12 9 8 9 9 9 9 9 8 9 9 11 7 7 8 8 8 10 10 11 11 13 11 10 11 10 10 10 9 9 9 8 8 8 9 9 9 8 7 4 5
7 5 8 6 8 10 10 11 9 10 10 10 10 9 14 12 13 12 12 12 13 11 10 11 11 12 11 10 10 11 11 10 10 10 8 9 9 10 9 8 8 6 5
1 5 4 3 1 4 8 9 11 11 12 11 9 9 18 12 11 12 13 13 13 13 12 12 11 12 12 12 13 12 12 13 10 10 10 10 10 10 9 9 8 6 7
4 6 6 2 2 5 10 9 10 12 13 12 10 9 8 11 11 12 12 11 11 12 12 12 12 12 12 12 12 13 13 13 13 11 12 12 11 11 11 10 10 7 8
3 5 6 6 3 13 16 17 14 16 13 13 11 11 10 11 12 14 12 10 11 12 12 13 13 17 13 12 11 11 12 11 10 12 15 12 12 11 11 10 12 13 10
5 7 7 7 12 16 18 15 15 16 13 13 11 10 11 11 12 12 12 11 11 12 13 13 12 14 18 20 16 17 16 16 15 14 12 14 14 14 14 12 12 11 11
6 7 9 12 17 13 11 12 17 16 14 12 11 11 12 12 12 12 11 12 11 11 13 11 12 17 17 15 19 19 16 17 15 16 13 11 12 12 12 13 16 12 15
Wind_Direction
187 186 184 178 183 178 184 196 203 205 185 189 168 144 130 141 133 119 118 110 101 93 60 88 67 55 80 60 62 103 123 105 120 30 36 359 138 161 74 78 86 55 38
187 178 187 170 166 178 187 183 170 184 177 158 137 128 132 143 131 131 121 115 118 110 110 84 72 50 56 42 56 87 102 80 127 129 327 18 22 359 190 207 249 94 47
160 161 160 164 165 172 162 163 164 149 133 129 140 140 145 148 129 114 115 122 109 128 105 110 111 98 75 65 92 100 92 81 77 123 99 30 25 35 46 354 350 30 300
156 157 161 166 166 168 166 164 165 155 152 151 151 144 149 134 125 119 119 112 124 111 105 108 115 118 127 124 110 119 104 102 96 91 73 51 28 356 45 43 20 25 4
160 168 179 168 161 151 166 170 133 140 166 167 141 135 131 126 134 128 129 138 135 104 89 103 115 128 136 149 146 156 127 104 117 86 70 43 18 23 35 328 80 354 356
170 170 150 153 147 166 171 158 146 158 175 159 145 148 138 132 145 150 147 144 133 124 122 81 64 86 90 101 110 124 127 133 117 126 162 120 106 119 313 25 60 48 327
169 170 163 163 169 176 182 149 158 170 169 172 157 141 142 144 158 161 153 137 136 145 138 128 125 102 86 73 67 70 67 80 143 152 129 167 155 198 153 77 119 113 226
172 167 167 171 175 175 171 170 166 161 169 158 146 156 152 178 170 164 152 137 146 161 163 166 157 152 139 113 91 75 58 60 67 87 99 150 123 127 130 147 129 115 32
183 172 174 175 177 176 181 181 170 149 154 157 157 161 170 183 181 160 141 147 159 186 189 185 173 177 187 143 114 110 91 64 92 108 121 142 141 119 139 105 72 92 349
193 179 174 176 178 179 180 173 174 176 158 154 159 180 183 176 182 166 150 148 163 184 212 205 202 192 202 168 145 150 145 193 159 117 45 28 46 6 113 150 161 132 165
183 172 169 176 180 180 174 170 168 154 150 159 171 183 185 181 194 178 164 164 171 166 173 181 216 210 182 174 165 171 196 168 178 146 174 238 271 257 256 195 186 153 158
168 170 175 175 176 173 174 173 171 164 168 171 175 184 196 197 186 189 176 170 163 164 184 195 208 196 184 175 169 192 176 152 140 177 194 214 215 233 232 216 222 240 249
165 173 176 173 174 175 174 174 171 173 181 182 187 188 194 192 199 186 190 184 172 168 169 195 193 198 189 179 201 187 164 163 160 180 193 193 204 219 262 264 207 241 273
171 173 173 176 177 176 179 178 181 185 189 184 190 196 191 185 200 191 193 190 189 194 176 181 192 192 177 171 217 214 185 189 183 180 194 202 132 170 219 202 173 110 125
173 174 180 188 183 181 187 188 196 200 193 187 198 189 182 205 208 194 190 190 186 181 122 107 152 188 200 202 221 219 201 183 186 182 186 202 178 192 219 185 137 153 177
173 176 185 188 193 189 188 192 248 221 198 202 179 182 203 207 163 185 191 187 177 150 130 176 194 203 202 202 211 214 199 207 198 194 194 194 211 189 204 202 184 204 206
181 181 177 187 192 190 192 199 203 205 209 196 191 192 185 184 181 186 191 191 181 158 196 195 209 203 207 204 208 202 212 210 186 187 194 197 198 212 180 209 200 184 233
188 181 181 186 191 203 207 212 209 203 204 211 218 200 205 189 189 190 190 155 156 231 215 209 212 202 202 204 208 209 214 205 195 201 198 198 190 189 190 205 193 188 186
184 182 194 180 184 204 214 217 216 212 208 212 182 190 202 195 198 194 171 198 208 209 214 218 212 204 205 205 208 208 209 211 205 197 205 200 196 195 217 206 193 195 169
191 183 189 187 189 196 211 215 219 223 219 213 211 213 154 123 195 196 195 208 213 214 208 215 215 212 212 209 206 207 208 211 211 205 208 204 201 195 210 202 198 174 196
177 150 201 197 192 197 203 212 214 223 228 225 227 209 180 191 205 207 205 206 211 213 211 212 217 219 215 214 211 210 212 213 210 207 202 202 199 200 205 202 194 191 173
15 115 159 184 256 258 237 221 212 219 224 226 227 217 178 208 211 212 214 213 210 212 209 210 213 211 211 211 210 210 213 214 207 201 202 202 203 206 192 197 191 177 176
293 125 114 108 328 293 289 246 231 224 229 225 215 210 192 211 221 221 220 218 210 209 212 213 217 219 216 215 210 209 215 215 214 201 197 196 199 201 193 191 186 181 182
149 178 186 204 352 329 276 253 246 233 225 226 210 214 207 210 218 225 224 214 212 213 212 214 217 220 219 218 216 216 218 218 209 196 200 203 206 197 201 195 186 185 179
190 190 188 206 199 222 233 242 246 240 227 227 219 217 220 205 218 220 219 216 213 213 215 216 221 220 217 216 214 215 215 202 202 198 200 206 200 199 196 197 185 176 158
196 211 212 219 243 236 206 225 236 234 229 224 220 220 221 218 215 220 217 217 219 219 216 216 218 216 216 220 222 222 214 212 208 203 200 205 205 197 186 190 182 169 166